CW9825 Weather Reports


time (UTC)temp
C
wind
direction
speed
KPH
gust
KPH
rain 1hr
cm
rain 24hr
cm
rain mn
cm
humidity
%
barometer
mb
20260510084612 7 348 8.0 16.1 0.00 0.00 0.00 59 1017.5
20260510084059 7 327 4.8 14.5 0.00 0.00 0.00 59 1017.5
20260510083556 7 355 6.4 14.5 0.00 0.00 0.00 59 1017.3
20260510083057 7 5 4.8 9.7 0.00 0.00 0.00 59 1017.3
20260510082556 7 5 4.8 12.9 0.00 0.00 0.00 59 1017.2
20260510082055 7 355 4.8 12.9 0.00 0.00 0.00 59 1017.2
20260510081557 7 5 6.4 12.9 0.00 0.00 0.00 59 1017.2
20260510081055 7 5 6.4 12.9 0.00 0.00 0.00 59 1017.1
20260510080557 7 340 6.4 12.9 0.00 0.00 0.00 59 1017.1
20260510080059 7 17 4.8 12.9 0.00 0.00 0.00 59 1017.0
20260510075553 7 347 4.8 12.9 0.00 0.00 0.00 59 1017.0
20260510075052 7 14 4.8 12.9 0.00 0.00 0.00 59 1017.0
20260510074553 7 350 6.4 12.9 0.00 0.00 0.00 59 1017.0
20260510074052 7 12 4.8 9.7 0.00 0.00 0.00 59 1017.0
20260510073551 7 21 3.2 8.0 0.00 0.00 0.00 59 1016.9
20260510073103 7 355 3.2 8.0 0.00 0.00 0.00 59 1016.8
20260510072551 7 5 3.2 8.0 0.00 0.00 0.00 59 1016.8
20260510072052 7 355 3.2 9.7 0.00 0.00 0.00 59 1016.8
20260510071552 7 26 4.8 9.7 0.00 0.00 0.00 59 1016.7
20260510071049 7 40 4.8 8.0 0.00 0.00 0.00 59 1016.6
20260510070547 7 15 3.2 9.7 0.00 0.00 0.00 58 1016.6
20260510070053 7 14 3.2 14.5 0.00 0.00 0.00 58 1016.6
20260510065547 7 24 4.8 14.5 0.00 0.00 0.00 58 1016.6
20260510065046 7 36 6.4 14.5 0.00 0.00 0.00 57 1016.5
20260510064550 7 26 6.4 14.5 0.00 0.00 0.00 57 1016.5
20260510064043 7 360 4.8 14.5 0.00 0.00 0.00 56 1016.4
20260510063542 8 19 3.2 12.9 0.00 0.00 0.00 55 1016.3
20260510063047 8 11 4.8 14.5 0.00 0.00 0.00 55 1016.3
20260510062540 8 38 8.0 14.5 0.00 0.00 0.00 54 1016.3
20260510062039 8 348 4.8 9.7 0.00 0.00 0.00 54 1016.2
20260510061538 8 360 3.2 9.7 0.00 0.00 0.00 53 1016.2
20260510061040 8 5 4.8 9.7 0.00 0.00 0.00 53 1016.1
20260510060537 8 355 4.8 9.7 0.00 0.00 0.00 53 1016.1
20260510060036 8 345 3.2 9.7 0.00 0.00 0.00 53 1016.0
20260510055535 8 5 4.8 9.7 0.00 0.00 0.00 53 1015.8
20260510055035 8 20 3.2 9.7 0.00 0.00 0.00 53 1015.8
20260510054535 8 355 4.8 8.0 0.00 0.00 0.00 53 1015.8
20260510054031 8 5 1.6 4.8 0.00 0.00 0.00 53 1015.7
20260510053530 8 5 1.6 4.8 0.00 0.00 0.00 53 1015.4
20260510053030 8 5 1.6 4.8 0.00 0.00 0.00 53 1015.4
20260510052529 8 5 1.6 6.4 0.00 0.00 0.00 53 1015.3
20260510052029 8 5 1.6 6.4 0.00 0.00 0.00 54 1015.3
20260510051528 8 360 3.2 4.8 0.00 0.00 0.00 54 1015.2
20260510051028 8 21 1.6 4.8 0.00 0.00 0.00 54 1015.1
20260510050526 8 355 1.6 4.8 0.00 0.00 0.00 55 1015.1
20260510050024 8 355 0.0 0.0 0.00 0.00 0.00 55 1015.1
20260510045524 8 344 0.0 0.0 0.00 0.00 0.43 55 1015.1
20260510045024 8 344 0.0 0.0 0.00 0.00 0.43 55 1015.0
20260510044531 8 344 0.0 0.0 0.00 0.00 0.43 55 1014.9
20260510044023 8 344 0.0 0.0 0.00 0.00 0.43 56 1014.8
20260510043523 8 344 0.0 0.0 0.00 0.00 0.43 56 1014.9
20260510043024 8 342 0.0 0.0 0.00 0.00 0.43 56 1014.9
20260510042524 8 341 0.0 0.0 0.00 0.00 0.43 55 1015.0
20260510042022 8 341 0.0 0.0 0.00 0.00 0.43 55 1014.9
20260510041522 8 341 0.0 0.0 0.00 0.00 0.43 54 1014.9
20260510041021 8 341 0.0 0.0 0.00 0.00 0.43 53 1014.9
20260510040521 8 341 0.0 0.0 0.00 0.00 0.43 53 1014.8
20260510040021 8 341 0.0 0.0 0.00 0.00 0.43 52 1014.7
20260510035520 8 341 0.0 0.0 0.00 0.00 0.43 52 1014.7
20260510035021 9 341 0.0 0.0 0.00 0.00 0.43 51 1014.7
20260510034519 9 341 0.0 0.0 0.00 0.00 0.43 50 1014.6
20260510034018 9 341 0.0 0.0 0.00 0.00 0.43 49 1014.5
20260510033519 9 341 0.0 0.0 0.00 0.00 0.43 49 1014.5
20260510033019 10 341 0.0 0.0 0.00 0.00 0.43 48 1014.5
20260510032518 10 341 0.0 0.0 0.00 0.00 0.43 47 1014.4
20260510032019 10 341 0.0 0.0 0.00 0.00 0.43 47 1014.4
20260510031519 10 341 0.0 0.0 0.00 0.00 0.43 47 1014.4
20260510031016 10 341 0.0 3.2 0.00 0.00 0.43 46 1014.4
20260510030516 10 341 0.0 3.2 0.00 0.00 0.43 46 1014.4
20260510030016 10 341 1.6 4.8 0.00 0.00 0.43 46 1014.4
20260510025515 10 341 1.6 4.8 0.00 0.00 0.43 45 1014.2
20260510025015 10 340 1.6 4.8 0.00 0.00 0.43 45 1014.2
20260510024516 11 338 0.0 4.8 0.00 0.00 0.43 44 1014.2
20260510024015 11 338 1.6 4.8 0.00 0.00 0.43 44 1014.1
20260510023513 11 337 1.6 4.8 0.00 0.00 0.43 44 1014.2
20260510023013 11 336 1.6 4.8 0.00 0.00 0.43 44 1014.0
20260510022514 11 336 0.0 8.0 0.00 0.00 0.43 43 1014.0
20260510022012 11 336 1.6 9.7 0.00 0.00 0.43 43 1014.0
20260510021514 11 337 4.8 9.7 0.00 0.00 0.43 43 1013.9
20260510021010 11 16 3.2 14.5 0.00 0.00 0.43 42 1013.8
20260510020518 11 336 4.8 14.5 0.00 0.00 0.43 42 1013.6
20260510020010 11 331 4.8 14.5 0.00 0.00 0.43 42 1013.6
20260510015509 12 338 6.4 17.7 0.00 0.00 0.43 41 1013.6
20260510015013 12 329 9.7 17.7 0.00 0.00 0.43 41 1013.5
20260510014509 12 313 6.4 16.1 0.00 0.00 0.43 41 1013.5
20260510014008 12 336 9.7 20.9 0.00 0.00 0.43 40 1013.4
20260510013508 12 355 9.7 20.9 0.00 0.00 0.43 40 1013.4
20260510013009 12 330 9.7 20.9 0.00 0.00 0.43 40 1013.4
20260510012507 12 320 8.0 20.9 0.00 0.00 0.43 40 1013.3
20260510012007 12 335 12.9 24.1 0.00 0.00 0.43 39 1013.2
20260510011509 12 346 11.3 24.1 0.00 0.00 0.43 40 1013.2
20260510011006 12 296 4.8 16.1 0.00 0.00 0.43 40 1013.1
20260510010505 12 339 8.0 22.5 0.00 0.00 0.43 39 1013.1
20260510010112 12 340 11.3 24.1 0.00 0.00 0.43 39 1013.1
20260510005505 12 333 11.3 25.7 0.00 0.00 0.43 39 1013.1
20260510005005 12 5 11.3 25.7 0.00 0.00 0.43 39 1013.0
20260510004504 12 285 12.9 27.4 0.00 0.00 0.43 39 1013.1
20260510004005 12 326 14.5 27.4 0.00 0.00 0.43 38 1013.0
20260510003504 12 318 11.3 22.5 0.00 0.00 0.43 39 1013.0
20260510003004 12 319 11.3 27.4 0.00 0.00 0.43 39 1013.1
20260510002503 12 298 12.9 27.4 0.00 0.00 0.43 38 1013.1
20260510002003 12 272 11.3 30.6 0.00 0.00 0.43 38 1013.0
20260510001502 12 327 17.7 30.6 0.00 0.00 0.43 38 1013.0
20260510001002 12 323 14.5 22.5 0.00 0.00 0.43 39 1013.0
20260510000502 13 315 11.3 25.7 0.00 0.00 0.43 39 1013.0
20260510000001 13 293 14.5 25.7 0.00 0.00 0.43 38 1012.9
20260509235603 13 286 12.9 30.6 0.00 0.00 0.43 38 1012.7
20260509235100 13 329 16.1 30.6 0.00 0.00 0.43 37 1012.7
20260509234602 13 331 16.1 27.4 0.00 0.00 0.43 38 1012.7
20260509234101 13 340 16.1 27.4 0.00 0.00 0.43 38 1012.8
20260509233558 13 325 14.5 25.7 0.00 0.00 0.43 39 1012.6
20260509233059 13 345 12.9 22.5 0.00 0.00 0.43 38 1012.6
20260509232600 13 324 11.3 24.1 0.00 0.00 0.43 40 1012.6
20260509232059 12 323 11.3 25.7 0.00 0.00 0.43 39 1012.7
20260509231558 12 322 12.9 25.7 0.00 0.00 0.43 39 1012.6
20260509231058 12 336 9.7 29.0 0.00 0.00 0.43 39 1012.6
20260509230557 13 310 11.3 33.8 0.00 0.00 0.43 38 1012.6
20260509230057 13 326 19.3 33.8 0.00 0.00 0.43 38 1012.5
20260509225555 13 306 12.9 30.6 0.00 0.00 0.43 39 1012.6
20260509225055 13 10 17.7 33.8 0.00 0.00 0.43 37 1012.4
20260509224555 13 336 20.9 33.8 0.00 0.00 0.43 36 1012.5
20260509224059 13 215 6.4 24.1 0.00 0.00 0.43 37 1012.4
20260509223555 13 360 12.9 32.2 0.00 0.00 0.43 37 1012.3
20260509223101 13 336 16.1 32.2 0.00 0.00 0.43 38 1012.3
20260509222555 13 286 14.5 29.0 0.00 0.00 0.43 37 1012.3
20260509222054 13 296 12.9 30.6 0.00 0.00 0.43 38 1012.4
20260509221554 13 315 14.5 38.6 0.00 0.00 0.43 38 1012.4
20260509221054 13 275 16.1 38.6 0.00 0.00 0.43 40 1012.4
20260509220554 13 321 14.5 33.8 0.00 0.00 0.43 39 1012.3
20260509220053 13 333 19.3 33.8 0.00 0.00 0.43 39 1012.4
20260509215553 13 292 16.1 37.0 0.00 0.00 0.43 38 1012.4
20260509215053 13 345 19.3 37.0 0.00 0.00 0.43 38 1012.3
20260509214552 13 317 16.1 33.8 0.00 0.00 0.43 39 1012.2
20260509214052 14 355 19.3 35.4 0.00 0.00 0.43 39 1012.2
20260509213552 13 336 19.3 35.4 0.00 0.00 0.43 38 1012.3
20260509213052 13 317 14.5 27.4 0.00 0.00 0.43 39 1012.3
20260509212552 13 298 12.9 32.2 0.00 0.00 0.43 40 1012.3
20260509212051 13 317 19.3 32.2 0.00 0.00 0.43 38 1012.3
20260509211551 13 286 6.4 24.1 0.00 0.00 0.43 39 1012.2
20260509211051 13 273 12.9 29.0 0.00 0.00 0.43 39 1012.2
20260509210552 13 302 12.9 30.6 0.00 0.00 0.43 39 1012.3
20260509210057 13 331 19.3 30.6 0.00 0.00 0.43 40 1012.3
20260509205653 13 317 14.5 27.4 0.00 0.00 0.43 39 1012.2
20260509205054 13 360 17.7 29.0 0.00 0.00 0.43 39 1012.2
20260509204554 13 331 12.9 29.0 0.00 0.00 0.43 38 1012.2
20260509204050 13 318 16.1 30.6 0.00 0.00 0.43 39 1012.3
20260509203549 13 321 19.3 30.6 0.00 0.00 0.43 38 1012.3
20260509203049 13 334 12.9 35.4 0.00 0.00 0.43 40 1012.2
20260509202549 13 307 17.7 35.4 0.00 0.00 0.43 39 1012.2
20260509202048 14 323 16.1 35.4 0.00 0.00 0.43 39 1012.2
20260509201549 13 351 16.1 37.0 0.00 0.00 0.43 39 1012.2
20260509201047 13 242 17.7 37.0 0.00 0.00 0.43 41 1012.2
20260509200546 13 355 16.1 35.4 0.00 0.00 0.43 39 1012.1
20260509195545 13 311 14.5 40.2 0.00 0.00 0.43 41 1012.1
20260509195043 13 17 17.7 40.2 0.00 0.00 0.43 40 1012.1
20260509194545 13 355 16.1 29.0 0.00 0.00 0.43 42 1012.0
20260509194043 12 309 9.7 33.8 0.00 0.00 0.43 41 1012.0
20260509193542 12 275 16.1 33.8 0.00 0.00 0.43 42 1012.1
20260509193043 12 302 11.3 30.6 0.00 0.00 0.43 41 1012.0
20260509192541 13 306 16.1 30.6 0.00 0.00 0.43 42 1012.0
20260509192042 12 334 12.9 30.6 0.00 0.00 0.43 43 1012.0
20260509191541 12 346 16.1 29.0 0.00 0.00 0.43 44 1012.0
20260509191041 13 345 11.3 29.0 0.00 0.00 0.43 45 1012.0
20260509190540 13 192 11.3 30.6 0.00 0.00 0.43 44 1012.0
20260509190040 13 261 16.1 30.6 0.00 0.00 0.43 45 1012.0
20260509185539 12 322 9.7 32.2 0.00 0.00 0.43 46 1011.9
20260509185039 12 329 20.9 32.2 0.00 0.00 0.43 45 1012.0
20260509184554 12 319 12.9 41.8 0.00 0.00 0.43 44 1012.0
20260509184037 12 13 20.9 41.8 0.00 0.00 0.43 47 1012.0
20260509183536 12 340 11.3 32.2 0.00 0.00 0.43 48 1012.0
20260509183036 12 282 12.9 29.0 0.00 0.00 0.43 48 1012.1
20260509182536 12 300 11.3 29.0 0.00 0.00 0.43 49 1012.0
20260509182035 12 339 14.5 29.0 0.00 0.00 0.43 47 1011.9
20260509181533 12 294 16.1 32.2 0.00 0.00 0.43 49 1011.9
20260509181034 11 319 16.1 32.2 0.00 0.00 0.43 49 1011.9
20260509180533 11 344 17.7 30.6 0.00 0.00 0.43 49 1011.9
20260509180032 11 295 14.5 29.0 0.00 0.00 0.43 50 1011.9
20260509175531 11 313 14.5 29.0 0.00 0.00 0.43 50 1012.0
20260509175033 11 338 12.9 32.2 0.00 0.00 0.43 49 1011.9
20260509174535 11 302 19.3 35.4 0.00 0.00 0.43 49 1011.9
20260509174029 11 324 14.5 30.6 0.00 0.00 0.43 50 1011.9
20260509173529 11 327 9.7 33.8 0.00 0.00 0.43 50 1011.9
20260509173029 11 312 16.1 37.0 0.00 0.00 0.43 50 1011.9
20260509172527 11 338 14.5 37.0 0.00 0.00 0.43 51 1011.9
20260509172027 10 333 14.5 32.2 0.00 0.00 0.43 52 1011.8
20260509171531 10 322 16.1 32.2 0.00 0.00 0.43 51 1011.9
20260509171025 10 297 14.5 32.2 0.00 0.00 0.43 52 1011.9
20260509170525 10 311 16.1 32.2 0.00 0.00 0.43 51 1011.9
20260509170025 10 342 14.5 27.4 0.00 0.00 0.43 52 1011.8
20260509165527 10 262 6.4 25.7 0.00 0.00 0.43 53 1011.7
20260509165023 10 288 14.5 27.4 0.00 0.00 0.43 54 1011.7
20260509164523 10 300 16.1 27.4 0.00 0.00 0.43 54 1011.8
20260509164021 10 350 12.9 24.1 0.00 0.00 0.43 54 1011.7
20260509163529 10 304 11.3 32.2 0.00 0.00 0.43 54 1011.6
20260509163023 10 342 16.1 32.2 0.00 0.00 0.43 52 1011.6
20260509162519 10 347 14.5 29.0 0.00 0.00 0.43 53 1011.6
20260509162019 10 36 14.5 29.0 0.00 0.00 0.43 54 1011.5
20260509161517 10 302 17.7 29.0 0.00 0.00 0.43 51 1011.5
20260509161016 10 296 11.3 27.4 0.00 0.00 0.43 55 1011.4
20260509160516 9 355 16.1 27.4 0.00 0.00 0.43 53 1011.3
20260509160015 9 355 17.7 33.8 0.00 0.00 0.43 54 1011.5
20260509155514 10 324 17.7 29.0 0.00 0.00 0.43 53 1011.2
20260509155013 9 340 12.9 27.4 0.00 0.00 0.43 52 1011.2
20260509154515 9 350 11.3 32.2 0.00 0.00 0.43 54 1011.2
20260509154011 9 229 11.3 32.2 0.00 0.00 0.43 55 1011.1
20260509153509 9 355 14.5 29.0 0.00 0.00 0.43 54 1011.1
20260509153020 9 288 11.3 33.8 0.00 0.00 0.43 54 1011.1
20260509152507 9 318 16.1 33.8 0.00 0.00 0.43 54 1010.9
20260509152008 8 315 12.9 30.6 0.00 0.00 0.43 55 1010.8
20260509151504 8 333 11.3 29.0 0.00 0.00 0.43 56 1010.8
20260509151002 8 334 14.5 27.4 0.00 0.00 0.43 57 1010.8
20260509150501 8 325 17.7 27.4 0.00 0.00 0.43 57 1010.7
20260509150100 8 12 14.5 27.4 0.00 0.00 0.43 57 1010.7
20260509145559 8 335 14.5 27.4 0.00 0.00 0.43 56 1010.6
20260509145058 8 5 16.1 32.2 0.00 0.00 0.43 57 1010.6
20260509144608 8 347 16.1 32.2 0.00 0.00 0.43 56 1010.6
20260509144057 8 315 12.9 29.0 0.00 0.00 0.43 58 1010.5
20260509143553 8 327 9.7 30.6 0.00 0.00 0.43 61 1010.5
20260509143116 7 320 16.1 32.2 0.00 0.00 0.43 59 1010.3
20260509142550 7 332 19.3 32.2 0.00 0.00 0.43 59 1010.3
20260509142050 7 53 12.9 25.7 0.00 0.00 0.43 60 1010.1
20260509141547 7 315 12.9 37.0 0.00 0.00 0.43 61 1010.1
20260509141047 7 325 17.7 37.0 0.00 0.00 0.43 59 1010.2
20260509140547 7 278 11.3 29.0 0.00 0.00 0.43 62 1010.1
20260509140049 6 321 17.7 29.0 0.00 0.00 0.43 61 1010.1
20260509135546 7 318 11.3 27.4 0.00 0.00 0.43 61 1010.1
20260509135046 7 22 12.9 25.7 0.00 0.00 0.43 62 1010.0
20260509134600 6 5 9.7 35.4 0.00 0.00 0.43 62 1009.9
20260509134041 6 42 17.7 35.4 0.00 0.00 0.43 62 1009.8
20260509133540 6 347 12.9 33.8 0.00 0.00 0.43 63 1009.7
20260509133045 6 286 12.9 33.8 0.00 0.00 0.43 63 1009.7
20260509132538 6 346 12.9 38.6 0.00 0.00 0.43 64 1009.5
20260509132041 6 39 11.3 29.0 0.00 0.00 0.43 64 1009.5
20260509131538 6 355 14.5 33.8 0.00 0.00 0.43 64 1009.3
20260509131035 6 26 11.3 33.8 0.00 0.00 0.43 65 1009.3
20260509130539 6 304 12.9 30.6 0.00 0.00 0.43 64 1009.2
20260509130046 6 331 17.7 30.6 0.00 0.00 0.43 65 1009.2
20260509125535 6 329 17.7 29.0 0.00 0.00 0.43 65 1009.1
20260509125032 6 5 11.3 29.0 0.00 0.00 0.43 65 1009.0
20260509124535 6 337 12.9 25.7 0.00 0.00 0.43 66 1009.0
20260509124032 5 319 9.7 25.7 0.00 0.00 0.43 68 1008.8
20260509123531 5 336 11.3 25.7 0.00 0.00 0.43 67 1008.8
20260509123031 5 325 9.7 27.4 0.00 0.00 0.43 68 1008.7
20260509122530 5 19 16.1 27.4 0.00 0.00 0.43 69 1008.6
20260509122028 5 26 9.7 22.5 0.00 0.00 0.43 70 1008.5
20260509121540 5 349 11.3 25.7 0.00 0.00 0.43 70 1008.4
20260509121027 5 13 11.3 25.7 0.00 0.00 0.43 71 1008.3
20260509120529 5 323 12.9 25.7 0.00 0.00 0.00 71 1008.3
20260509120025 5 355 11.3 27.4 0.00 0.00 0.00 72 1008.1
20260509115523 5 325 12.9 24.1 0.00 0.00 0.00 73 1008.1
20260509115022 5 46 9.7 27.4 0.00 0.00 0.00 73 1008.0
20260509114531 5 10 12.9 27.4 0.00 0.00 0.00 74 1007.8
20260509114021 5 336 11.3 24.1 0.00 0.00 0.00 75 1007.8
20260509113520 5 316 11.3 24.1 0.00 0.00 0.00 76 1007.6
20260509113024 4 333 9.7 22.5 0.00 0.00 0.00 77 1007.6
20260509112517 4 336 11.3 24.1 0.00 0.00 0.00 78 1007.4
20260509112023 4 336 11.3 24.1 0.00 0.00 0.00 78 1007.3
20260509111515 4 321 9.7 19.3 0.00 0.00 0.00 79 1007.2
20260509111014 4 311 9.7 19.3 0.00 0.00 0.00 79 1007.1
20260509110512 4 338 9.7 19.3 0.00 0.00 0.00 79 1007.0
20260509110011 4 328 9.7 20.9 0.00 0.00 0.00 79 1006.9
20260509105512 4 320 12.9 24.1 0.00 0.00 0.00 79 1006.8
20260509105009 4 348 11.3 24.1 0.00 0.00 0.00 80 1006.7
20260509104511 4 329 12.9 24.1 0.00 0.00 0.00 81 1006.5
20260509104007 4 334 11.3 24.1 0.00 0.00 0.00 82 1006.3
20260509103507 5 304 12.9 22.5 0.00 0.00 0.00 82 1006.3
20260509103005 5 332 11.3 22.5 0.00 0.00 0.00 83 1006.3
20260509102505 5 338 11.3 22.5 0.00 0.00 0.00 83 1006.3
20260509102105 5 342 8.0 22.5 0.00 0.00 0.00 84 1006.2
20260509101504 5 309 11.3 22.5 0.00 0.00 0.00 87 1006.0
20260509101100 5 336 16.1 22.5 0.00 0.00 0.00 89 1005.9
20260509100559 5 267 6.4 16.1 0.00 0.00 0.00 90 1005.9
20260509100059 5 277 6.4 16.1 0.00 0.00 0.00 90 1005.7
20260509095558 5 317 4.8 12.9 0.00 0.00 0.00 90 1005.7
20260509095057 5 279 6.4 17.7 0.00 0.00 0.00 90 1005.7
20260509094603 5 304 8.0 17.7 0.00 0.00 0.00 90 1005.6
20260509094055 5 275 8.0 17.7 0.00 0.00 0.00 90 1005.5
20260509093554 5 326 8.0 17.7 0.00 0.00 0.00 90 1005.5
20260509093103 5 290 6.4 14.5 0.00 0.00 0.00 90 1005.4
20260509092551 5 313 4.8 14.5 0.00 0.00 0.00 89 1005.2
20260509092050 6 321 1.6 12.9 0.00 0.00 0.00 89 1005.2
20260509091548 6 296 3.2 12.9 0.00 0.00 0.00 89 1005.1
20260509091048 6 355 0.0 8.0 0.00 0.00 0.00 88 1005.0
20260509090547 6 325 1.6 12.9 0.00 0.00 0.00 87 1005.0
20260509090050 6 329 4.8 12.9 0.00 0.00 0.00 87 1004.9
20260509085545 6 293 3.2 9.7 0.00 0.00 0.00 87 1004.8
20260509085044 6 316 3.2 9.7 0.00 0.00 0.00 87 1004.7